Skip Page Navigation
NASA JPL Caltech
NASA Logo - Jet Propulsion Laboratory + View the NASA Portal
+ Center for Near-Earth Object Studies
JPL Home Earth Solar System Stars & Galaxies Technology
JPL Solar System Dynamics
BODIES ORBITS EPHEMERIDES TOOLS PHYSICAL DATA DISCOVERY FAQ SITE MAP
IMPORTANT: The SSD Announcement email list is now available. Major changes are coming in the near future, including possible hostname and/or URL changes. To be notified of such changes, subscribe to this email list.

Please visit this page for more details.


JPL Small-Body Database Browser
Search: [ help ]  
344153 (2000 SU56)
Classification: Main-belt Asteroid          SPK-ID: 2344153
Ephemeris | Orbit Diagram | Orbital Elements | Mission Design | Physical Parameters | Discovery Circumstances | Close-Approach Data ]

[ show orbit diagram ]
Orbital Elements at Epoch 2458600.5 (2019-Apr-27.0) TDB
Reference: JPL 6 (heliocentric ecliptic J2000)
 Element Value Uncertainty (1-sigma)   Units 
e .1852470027671666 3.6981e-07  
a 2.478513122353635 5.4842e-08 au
q 2.019375995118533 8.7619e-07 au
i 1.833276551938037 1.2259e-05 deg
node 356.6302726022252 0.00039885 deg
peri 14.18767023888917 0.00040317 deg
M 270.5079051075381 8.1437e-05 deg
tp 2458954.796966950833
(2020-Apr-15.29696695)
0.00033337 TDB
period 1425.231002308825
3.90
4.7304e-05
1.295e-07
d
yr
n .2525906322671992 8.3836e-09 deg/d
Q 2.937650249588738 6.5001e-08 au
  Orbit Determination Parameters
   # obs. used (total)      108  
   data-arc span      7861 days (21.52 yr)  
   first obs. used      1996-09-08  
   last obs. used      2018-03-18  
   planetary ephem.      DE431  
   SB-pert. ephem.      SB431-N16  
   condition code      0  
   norm. resid. RMS      .6333  
   source      ORB  
   producer      Otto Matic  
   solution date      2019-Jul-13 13:50:32  

Additional Information
 Earth MOID = 1.01837 au 
 Jupiter MOID = 2.52445 au 
 T_jup = 3.455 
[ show covariance matrix ]

Ephemeris | Orbit Diagram | Orbital Elements | Mission Design | Physical Parameters | Discovery Circumstances | Close-Approach Data ]

Physical Parameter Table
Parameter Symbol Value Units Sigma Reference Notes
absolute magnitude H 17.6   n/a MPO397229  

344153 (2000 SU56)          Discovered 2000-Sep-24 by LINEAR at Socorro
Reference: 20121128/Numbers.arcLast Updated: 2012-12-03

[ show close-approach data ]
Alternate Designations
 2000 SU56 = 2004 RS337 
Ephemeris | Orbit Diagram | Orbital Elements | Mission Design | Physical Parameters | Discovery Circumstances | Close-Approach Data ]
ABOUT SSD CREDITS/AWARDS PRIVACY/COPYRIGHT GLOSSARY LINKS
FirstGov 2019-Dec-15 06:23 UT
(server date/time)  
NASA Home Page
Site Manager:   Ryan S. Park
Webmaster  Alan B. Chamberlin